Retour au catalogue

FR 1

ActifScienceLEO
NORAD 1814·PAYLOAD·🇫🇷 France

Lancé Dec 6, 1965 depuis Vandenberg Space Force Base

Loading…

Prochains Passages (prochaines 24 heures)

TLE

FraisSource: Space-Track

Époque: Sep 14, 2026, 06:40 UTC

1 01814U 65101A   26257.27783373  .00000611  00000-0  10052-3 0  9998
2 01814  75.8659 197.2428 0006181 240.0230 120.0339 14.71781721 69200

Suivez FR 1 en temps réel avec AllMySat

Download on the App Store